Weather History for Proserpine, QU

Change the Weather History Date:

Wednesday, December 18, 2013

  Actual Average Record
Temperature  
Mean Temperature 78 °F -  
Max Temperature 86 °F - - ()
Min Temperature 70 °F - - ()
Cooling Degree Days 13    
Growing Degree Days 28 (Base 50)    
Moisture  
Dew Point 66 °F    
Average Humidity 66    
Maximum Humidity 88    
Minimum Humidity 40    
Precipitation  
Precipitation 0.02 in - - ()
Sea Level Pressure  
Sea Level Pressure 29.95 in    
Wind  
Wind Speed 12 mph ()    
Max Wind Speed 23 mph    
Max Gust Speed 34 mph    
Visibility 6.3 miles    
Events      
T = Trace of Precipitation, MM = Missing Value Source: Averaged Metar Reports

Daily Weather History Graph

Daily Weather History Graph

Search for Another Location

Airport:

Trip Planner

Search our weather history database for the weather conditions in past years. The results will help you decide how hot, cold, wet, or windy it might be!

Date:

Astronomy

Dec. 18, 2013 Rise Set
Actual Time 5:21 AM AEST 6:43 PM AEST
Civil Twilight 4:56 AM AEST 7:08 PM AEST
Nautical Twilight 4:26 AM AEST 7:37 PM AEST
Astronomical Twilight 3:56 AM AEST 8:08 PM AEST
Moon 7:18 PM AEST 5:52 AM AEST
Length of Visible Light 14h 11m
Length of Day
13h 22m
Full, 100% of the Moon is Illuminated
Dec 18
Full
Dec 25
Last Quarter
Jan 1
New
Jan 8
First Quarter
Jan 16
Full

Hourly Weather History & Observations

Time (AEST) Temp. Heat Index Dew Point Humidity Pressure Visibility Wind Dir Wind Speed Gust Speed Precip Events Conditions
12:00 AM 75 °F - 67 °F 69% 29.97 in - South 10.4 mph - -  
12:00 AM 75.2 °F - 68.0 °F 78% 29.95 in 6.2 mi South 10.4 mph - N/A   Scattered Clouds
1:00 AM 75.2 °F - 66.2 °F 73% 29.95 in 6.2 mi South 9.2 mph - N/A   Scattered Clouds
2:00 AM 73.4 °F - 66.2 °F 78% 29.92 in 6.2 mi South 8.1 mph - N/A   Scattered Clouds
3:00 AM 72 °F - 67 °F 79% 29.93 in - SSE 10.4 mph - -   Overcast
3:01 AM 71.6 °F - 68.0 °F 88% 29.92 in 3.1 mi SSE 12.7 mph 26.5 mph N/A   Mostly Cloudy
4:00 AM 71.6 °F - 66.2 °F 83% 29.92 in 6.2 mi South 4.6 mph - N/A   Scattered Clouds
5:00 AM 69.8 °F - 66.2 °F 88% 29.92 in 6.2 mi WSW 5.8 mph - N/A   Mostly Cloudy
6:00 AM 71 °F - 66 °F 79% 29.95 in - SSW 5.8 mph - -  
6:00 AM 71.6 °F - 66.2 °F 83% 29.95 in 6.2 mi SSW 5.8 mph - N/A   Unknown
7:00 AM 75.2 °F - 66.2 °F 73% 29.95 in 6.2 mi SSE 12.7 mph - N/A   Unknown
8:00 AM 80.6 °F 82.7 °F 66.2 °F 61% 29.98 in 6.2 mi SSE 12.7 mph - N/A   Scattered Clouds
9:00 AM 82 °F - 66 °F 49% 29.97 in - SE 19.6 mph - -  
9:00 AM 82.4 °F 84.6 °F 66.2 °F 58% 29.98 in 6.2 mi SE 20.7 mph - N/A   Unknown
10:00 AM 84.2 °F 87.3 °F 68.0 °F 58% 29.95 in 6.2 mi ESE 17.3 mph - N/A   Mostly Cloudy
11:00 AM 86.0 °F 88.2 °F 66.2 °F 51% 29.95 in 6.2 mi ESE 20.7 mph - N/A   Unknown
12:00 PM 85 °F - 64 °F 40% 29.96 in - ESE 19.6 mph - -  
12:00 PM 86.0 °F 88.2 °F 66.2 °F 51% 29.95 in 6.2 mi ESE 20.7 mph - N/A   Unknown
1:00 PM 84.2 °F 86.6 °F 66.2 °F 55% 29.95 in 6.2 mi ESE 23.0 mph - N/A   Unknown
2:00 PM 84.2 °F 85.6 °F 64.4 °F 51% 29.95 in 6.2 mi ESE 23.0 mph - N/A   Unknown
3:00 PM 85 °F - 66 °F 43% 29.94 in 11 mi ESE 23.0 mph - -   Partly Cloudy
3:00 PM 84.2 °F 85.6 °F 64.4 °F 51% 29.92 in 6.2 mi ESE 21.9 mph - N/A   Unknown
4:00 PM 84.2 °F 86.6 °F 66.2 °F 55% 29.92 in 6.2 mi ESE 23.0 mph 34.5 mph N/A   Unknown
5:00 PM 80.6 °F 83.2 °F 68.0 °F 65% 29.92 in 6.2 mi ESE 21.9 mph 33.4 mph N/A   Unknown
6:00 PM 80 °F - 68 °F 58% 29.96 in - ESE 19.6 mph - -  
6:00 PM 80.6 °F 83.2 °F 68.0 °F 65% 29.95 in 6.2 mi ESE 19.6 mph - N/A   Unknown
7:00 PM 78.8 °F - 66.2 °F 65% 29.98 in 6.2 mi ESE 18.4 mph - N/A   Scattered Clouds
8:00 PM 78.8 °F - 64.4 °F 61% 29.98 in 6.2 mi ESE 19.6 mph - N/A   Scattered Clouds
9:00 PM 76 °F - 66 °F 64% 30.00 in - SE 11.5 mph - -  
9:00 PM 75.2 °F - 66.2 °F 73% 29.98 in 6.2 mi SE 11.5 mph - N/A   Unknown
10:00 PM 73.4 °F - 68.0 °F 83% 30.01 in 6.2 mi SSE 11.5 mph - N/A   Scattered Clouds
11:00 PM 73.4 °F - 68.0 °F 83% 30.01 in 6.2 mi South 10.4 mph - N/A   Scattered Clouds